Wind_Speed
41 41 36 31 28 30 28 27 25 26 24 26 28 30 32 32 41 43 44 42 32 27 28 32 35 34 33 38 39 36 34 38 36 27 20 16 18 20 18 17 14 16 15 14 12
43 34 30 28 28 28 26 24 23 24 23 23 28 30 25 29 32 45 41 28 31 31 26 31 33 32 34 35 34 29 37 39 37 25 22 17 22 18 17 22 14 19 22 18 15
35 32 34 30 28 25 25 21 20 19 19 19 25 27 25 27 29 42 48 29 27 30 28 27 29 29 32 32 38 37 39 41 25 23 26 18 20 24 15 17 21 16 21 25 20
35 37 38 35 27 22 21 19 18 17 16 15 17 20 19 22 11 13 45 35 31 27 29 30 31 31 28 35 38 35 39 27 28 27 25 17 14 22 20 14 17 20 23 26 25
37 29 26 25 20 18 16 15 13 11 8 7 10 12 16 17 14 15 34 34 33 32 32 30 31 30 28 33 28 34 19 17 24 20 21 25 21 16 17 20 18 25 28 26 22
35 28 25 22 16 11 9 7 7 3 3 1 2 2 3 8 14 19 26 43 39 32 31 31 31 25 21 9 27 21 23 10 21 30 27 24 27 21 22 15 25 27 25 24 24
36 29 24 18 13 5 6 5 3 1 2 1 2 4 7 5 16 23 23 36 27 25 32 31 27 24 18 20 19 8 22 14 25 27 29 25 28 31 24 22 20 22 27 25 24
42 31 26 19 12 9 7 2 1 2 2 1 3 6 8 5 10 31 28 32 35 34 27 27 23 25 15 19 18 25 16 19 24 21 26 30 26 22 28 25 22 23 22 22 24
41 36 26 19 15 12 6 3 3 1 6 6 7 8 5 12 11 21 24 31 37 22 35 30 29 27 23 18 18 22 18 23 18 24 22 28 20 15 14 19 23 26 22 21 24
42 42 36 24 15 9 6 1 5 6 5 5 5 5 9 2 9 24 22 28 37 26 31 33 29 31 28 20 24 26 26 23 25 23 27 32 31 11 18 24 23 19 25 27 27
32 40 39 38 30 11 7 5 4 5 4 2 2 9 8 9 10 32 25 27 31 37 36 31 32 43 41 37 22 14 20 18 19 21 18 35 29 25 20 23 24 22 23 23 23
27 30 32 30 28 19 15 13 7 4 3 3 5 11 8 17 16 36 20 26 32 33 33 33 35 32 27 22 20 17 14 23 12 23 18 14 23 29 26 26 29 25 27 26 25
26 29 30 30 27 24 15 19 16 12 11 9 9 10 20 14 24 20 19 17 37 33 28 26 24 21 22 23 24 21 15 21 20 13 19 15 23 25 26 30 28 28 30 30 30
22 25 28 27 26 26 24 22 17 13 8 11 9 17 10 19 12 14 17 31 24 35 24 16 25 28 22 26 25 21 14 14 19 10 6 19 5 12 21 27 29 29 28 28 30
23 21 23 27 23 23 21 16 11 9 3 4 5 10 11 6 19 15 15 28 25 31 22 15 22 31 24 25 23 15 20 15 14 11 8 11 6 11 16 25 26 28 28 28 29
22 22 20 19 19 21 17 10 9 6 5 4 8 10 9 7 10 13 6 24 24 33 23 18 22 19 17 21 21 16 17 13 8 7 5 17 13 13 23 23 20 21 20 20 21
21 19 19 15 15 18 13 8 5 7 2 6 10 12 12 12 9 8 4 20 23 22 21 14 26 28 27 18 14 21 20 7 3 4 4 7 15 10 12 14 16 19 20 19 16
18 19 16 14 13 15 8 7 8 8 8 10 9 11 15 12 9 6 13 17 19 24 21 7 10 30 25 24 18 20 22 6 5 4 5 11 9 8 16 15 15 14 18 14 14
15 16 15 13 10 14 9 8 5 6 7 7 9 10 8 7 7 8 8 12 18 20 13 5 4 21 25 25 22 25 24 12 4 4 4 9 8 12 20 24 23 20 15 15 15
12 11 13 15 9 9 5 5 7 11 11 7 2 3 5 5 4 4 6 11 10 15 14 7 7 8 24 31 28 22 22 10 8 2 4 9 9 13 24 24 23 22 17 16 16
12 10 11 16 8 3 3 4 14 10 5 5 3 2 4 4 5 3 3 7 8 10 10 8 4 7 14 17 29 25 24 10 7 5 2 2 2 4 15 17 22 20 19 16 14
10 8 9 11 6 5 4 9 11 6 7 7 5 6 3 4 5 4 5 5 11 10 6 7 7 8 6 9 17 25 20 24 6 4 5 0 2 4 8 15 18 18 12 10 11
7 6 5 4 4 1 7 7 9 4 2 2 2 2 3 6 3 5 8 6 11 11 8 8 5 7 4 7 14 17 18 15 21 8 8 2 2 10 11 15 16 12 11 12 11
6 3 4 2 4 5 2 2 4 4 4 3 4 2 4 4 5 7 7 8 9 10 9 10 7 5 4 4 8 24 25 23 23 14 7 12 9 19 22 16 12 13 12 11 11
6 4 6 4 6 6 9 5 3 4 4 4 3 7 5 3 3 4 9 9 10 9 9 9 8 10 7 5 6 7 16 24 30 29 15 10 15 13 14 11 12 13 14 11 12
6 5 5 9 7 6 4 2 5 6 5 3 2 2 6 3 5 5 8 6 9 13 9 11 6 9 11 12 13 15 14 16 28 27 31 18 16 13 17 18 19 18 16 13 13
6 6 4 5 9 6 8 9 5 5 3 5 5 2 5 7 9 7 9 7 6 9 11 11 8 4 1 5 7 14 24 26 24 23 24 30 29 22 23 25 25 20 16 14 12
Wind_Direction
325 319 310 307 296 291 290 291 288 280 271 263 236 231 243 240 232 224 229 225 221 234 223 215 215 217 212 215 213 216 219 234 216 218 225 216 221 225 208 198 226 217 222 206 194
328 324 317 307 298 296 296 293 287 281 272 266 256 222 238 235 235 221 213 224 216 224 219 216 213 212 212 213 208 202 218 235 220 212 229 243 221 211 225 205 196 208 220 211 195
335 321 314 307 303 299 297 295 290 280 280 271 253 231 223 219 233 224 212 211 217 209 207 208 209 207 210 209 207 202 217 221 223 228 231 232 227 218 219 229 221 219 236 217 209
328 316 308 305 309 303 296 292 291 280 279 267 263 248 221 200 207 229 215 195 189 200 198 201 201 197 204 209 209 204 222 208 214 242 253 210 212 233 211 216 217 210 220 232 227
336 330 329 320 310 300 298 295 294 281 273 275 274 221 203 182 176 168 198 193 211 207 203 200 201 193 202 208 208 212 194 228 194 242 229 227 198 194 228 216 216 212 221 236 238
354 349 340 333 319 306 304 298 276 279 251 235 191 115 181 188 177 187 182 198 189 192 193 198 195 189 191 210 205 230 201 195 205 235 229 225 222 228 216 237 229 227 230 233 237
3 1 353 350 340 338 322 305 282 311 274 294 214 225 241 186 183 191 175 201 199 184 193 190 180 185 184 198 203 179 202 206 204 231 233 233 232 222 219 219 225 234 230 234 236
19 8 6 7 13 347 324 311 99 72 13 346 297 277 280 274 217 202 182 189 192 191 199 192 169 188 189 198 189 205 189 205 215 220 230 241 239 237 229 218 219 233 236 236 237
26 30 17 20 22 18 19 105 120 339 300 294 268 271 269 259 222 205 177 180 195 201 169 160 180 188 191 186 187 203 207 211 214 219 220 232 244 206 216 232 236 238 239 240 243
27 33 34 26 20 34 52 330 296 298 288 280 241 241 243 238 209 192 196 172 180 186 160 174 184 185 190 189 193 200 196 213 217 225 222 231 244 202 222 230 238 237 229 235 242
24 25 29 28 27 29 6 344 328 320 277 225 244 221 193 161 184 171 165 172 181 167 173 180 183 190 194 201 201 196 205 211 217 220 233 223 235 235 215 237 242 235 241 241 243
6 14 23 29 28 43 51 45 32 8 42 240 238 181 166 151 162 175 168 166 180 168 169 172 198 192 193 188 207 214 213 214 223 223 231 231 242 236 234 237 248 244 244 246 246
353 2 9 12 17 16 28 37 67 59 71 95 107 126 128 132 168 165 170 181 170 174 177 180 182 179 190 191 206 213 220 205 213 221 237 234 249 235 234 242 247 244 243 244 247
340 352 1 7 8 7 4 3 30 56 76 48 71 131 139 144 158 147 172 160 166 172 166 198 171 181 195 201 199 206 207 201 207 204 234 228 273 262 245 238 242 244 245 244 243
343 336 337 351 359 6 7 3 30 66 63 76 99 127 137 143 107 94 169 177 168 165 180 192 195 194 184 192 187 207 197 186 193 202 278 212 231 251 222 227 239 240 238 241 241
350 350 344 336 348 2 7 16 61 58 51 47 52 87 118 108 94 100 120 160 162 179 185 184 189 202 184 189 191 185 178 178 176 202 255 221 210 203 218 235 236 229 230 233 236
346 353 3 359 358 3 5 21 53 46 107 43 91 109 126 106 111 74 16 174 172 178 169 183 190 195 188 169 158 176 160 136 186 196 228 197 206 213 231 242 239 232 222 226 234
338 347 357 356 7 10 15 48 65 90 91 83 90 117 109 109 100 136 128 153 178 188 168 177 160 188 186 186 179 171 174 157 198 189 174 181 223 226 218 211 233 220 215 226 226
332 344 359 357 357 4 11 56 113 122 117 108 94 92 68 83 104 99 97 131 156 168 173 148 142 183 191 190 177 184 202 222 276 263 138 194 204 202 214 216 212 213 227 222 230
322 341 355 4 347 353 332 73 122 123 119 78 41 84 118 130 89 80 49 133 114 141 140 147 117 178 205 198 200 193 191 203 222 207 216 190 191 216 217 223 212 214 216 226 241
311 325 336 2 0 355 63 114 127 114 92 102 74 93 115 155 138 105 121 151 140 133 141 131 169 145 167 195 194 195 199 196 201 240 199 143 193 230 239 222 207 211 225 240 256
299 310 330 350 30 44 114 149 145 107 80 70 82 135 127 161 135 138 157 179 179 140 152 158 142 146 176 184 191 206 208 205 197 216 230 258 291 192 219 192 194 205 225 254 273
279 282 287 336 38 37 121 156 165 152 87 44 31 84 156 138 139 173 200 179 183 172 176 179 148 123 148 226 215 211 197 209 213 235 214 178 176 167 174 198 196 217 250 275 275
290 244 217 224 163 139 328 204 209 243 280 278 267 211 160 191 174 206 204 184 187 203 201 193 180 191 152 178 207 214 214 205 207 209 195 201 164 190 203 215 228 238 265 276 288
291 246 223 194 191 200 177 217 214 305 275 291 330 176 164 204 187 200 225 204 211 210 211 203 207 213 204 222 212 224 221 215 220 222 212 222 232 235 220 191 230 254 278 282 292
303 269 240 233 226 220 247 319 195 253 263 305 200 222 186 158 208 237 234 225 219 216 213 213 222 231 240 251 261 260 241 222 227 236 232 217 215 162 194 225 242 259 277 273 285
310 281 271 272 230 198 204 216 184 226 269 261 173 138 168 220 212 187 194 209 252 231 219 227 238 232 162 251 278 272 251 241 239 241 234 228 232 221 220 227 246 258 262 267 275
Height
3042 3035 3029 3024 3021 3018 3016 3014 3013 3012 3011 3013 3015 3019 3021 3024 3029 3037 3040 3048 3058 3062 3071 3077 3083 3089 3095 3100 3106 3113 3115 3118 3122 3124 3131 3135 3136 3138 3142 3145 3147 3151 3149 3151 3156
3034 3027 3022 3018 3014 3012 3010 3008 3006 3005 3005 3006 3008 3012 3013 3018 3020 3025 3037 3045 3053 3059 3065 3070 3077 3084 3090 3095 3101 3106 3109 3112 3121 3124 3127 3131 3133 3136 3139 3142 3144 3146 3147 3149 3153
3027 3021 3016 3011 3008 3005 3003 3002 3001 3000 3000 3000 3001 3004 3008 3011 3014 3017 3028 3039 3048 3054 3061 3066 3073 3081 3086 3092 3097 3101 3101 3110 3119 3123 3121 3126 3129 3133 3136 3139 3142 3145 3144 3147 3150
3022 3015 3008 3003 3001 3000 2998 2998 2997 2996 2996 2997 2997 2999 3001 3003 3013 3013 3023 3037 3043 3050 3057 3061 3068 3075 3082 3087 3094 3097 3101 3109 3116 3116 3119 3123 3126 3128 3133 3137 3139 3140 3141 3143 3148
3015 3007 3001 2998 2995 2994 2994 2994 2994 2993 2994 2995 2996 2997 2998 3003 3008 3011 3018 3033 3039 3046 3052 3058 3064 3072 3077 3083 3090 3093 3099 3105 3112 3113 3114 3120 3121 3125 3129 3133 3134 3135 3139 3142 3145
3012 3004 2998 2994 2992 2991 2992 2992 2992 2992 2993 2995 2995 2998 2999 3003 3007 3009 3014 3025 3031 3041 3048 3055 3062 3071 3078 3085 3087 3091 3097 3100 3107 3106 3109 3114 3118 3122 3127 3129 3130 3133 3136 3138 3141
3011 3003 2997 2992 2990 2991 2991 2991 2992 2993 2994 2994 2996 2997 2999 3004 3005 3010 3013 3020 3029 3034 3046 3053 3062 3071 3077 3081 3085 3091 3095 3098 3102 3102 3106 3110 3114 3117 3123 3125 3126 3128 3131 3134 3137
3014 3005 2999 2994 2992 2992 2991 2992 2993 2994 2994 2995 2995 2997 2998 3001 3003 3009 3011 3017 3025 3034 3044 3055 3062 3068 3075 3079 3084 3089 3092 3096 3099 3102 3104 3108 3109 3114 3118 3121 3122 3124 3127 3130 3133
3017 3007 3001 2997 2995 2993 2992 2993 2994 2995 2995 2994 2995 2996 2998 2998 3003 3007 3008 3017 3026 3034 3040 3051 3059 3064 3073 3076 3082 3086 3089 3092 3096 3098 3101 3103 3105 3112 3113 3115 3118 3121 3124 3127 3129
3022 3011 3005 3000 2998 2995 2994 2995 2995 2995 2995 2995 2995 2998 2998 2999 3002 3005 3009 3017 3028 3034 3038 3048 3056 3062 3067 3072 3076 3079 3084 3089 3092 3095 3096 3099 3100 3107 3109 3111 3114 3116 3119 3122 3124
3025 3018 3013 3005 3000 2996 2996 2996 2997 2996 2994 2994 2994 2994 2996 2997 3001 3008 3013 3018 3025 3025 3033 3044 3051 3048 3053 3064 3074 3080 3083 3085 3090 3092 3093 3094 3096 3101 3105 3106 3109 3113 3114 3116 3118
3027 3021 3016 3011 3007 3001 2997 2996 2996 2997 2995 2993 2993 2995 2996 2998 3004 3007 3011 3022 3020 3024 3032 3044 3046 3055 3063 3069 3075 3079 3081 3084 3089 3089 3091 3092 3093 3096 3099 3101 3103 3107 3109 3111 3113
3029 3024 3019 3014 3010 3005 3001 3000 2999 2999 2998 2996 2995 2999 3001 3005 3007 3011 3015 3017 3024 3029 3036 3042 3048 3057 3063 3068 3073 3076 3079 3081 3085 3086 3086 3089 3088 3090 3092 3095 3098 3099 3101 3104 3106
3031 3026 3021 3017 3015 3008 3005 3002 3003 3003 3003 3005 3001 3008 3005 3007 3007 3012 3016 3021 3026 3033 3041 3047 3049 3054 3059 3066 3072 3074 3078 3080 3082 3085 3088 3087 3086 3082 3085 3088 3090 3092 3095 3097 3099
3032 3027 3023 3018 3015 3013 3011 3005 3004 3005 3006 3015 3009 3009 3008 3009 3013 3016 3022 3024 3028 3033 3040 3044 3047 3053 3058 3063 3069 3074 3074 3077 3080 3084 3085 3085 3086 3079 3081 3082 3083 3086 3088 3090 3092
3031 3027 3023 3021 3017 3014 3010 3008 3007 3009 3014 3014 3011 3012 3011 3015 3016 3018 3022 3025 3028 3034 3040 3044 3048 3052 3057 3061 3066 3069 3072 3077 3081 3084 3084 3080 3081 3077 3075 3077 3079 3081 3083 3085 3087
3030 3027 3023 3020 3017 3014 3011 3010 3011 3011 3018 3019 3017 3018 3018 3017 3019 3019 3021 3024 3028 3035 3039 3043 3046 3051 3056 3059 3062 3066 3070 3077 3083 3083 3079 3073 3078 3073 3073 3073 3075 3077 3079 3081 3084
3030 3026 3024 3020 3016 3014 3013 3013 3012 3017 3017 3018 3019 3020 3020 3021 3022 3023 3024 3026 3030 3033 3038 3040 3048 3049 3051 3054 3058 3064 3066 3068 3072 3075 3071 3073 3070 3071 3072 3072 3072 3075 3076 3079 3082
3028 3026 3023 3021 3016 3014 3015 3013 3016 3017 3019 3020 3021 3023 3024 3024 3024 3025 3025 3028 3030 3033 3039 3040 3042 3046 3050 3053 3058 3061 3064 3067 3069 3066 3066 3065 3066 3067 3067 3069 3070 3072 3074 3076 3078
3028 3025 3023 3019 3017 3015 3015 3015 3017 3018 3020 3021 3022 3023 3025 3026 3027 3026 3027 3030 3031 3033 3036 3040 3044 3046 3048 3052 3056 3057 3062 3067 3067 3068 3064 3060 3060 3059 3061 3063 3067 3069 3072 3074 3075
3026 3024 3023 3019 3017 3017 3016 3017 3019 3021 3021 3022 3023 3024 3025 3026 3027 3029 3031 3033 3034 3036 3038 3040 3042 3047 3048 3048 3049 3056 3058 3062 3063 3062 3060 3060 3058 3056 3059 3061 3064 3067 3069 3072 3073
3022 3023 3022 3020 3019 3018 3018 3019 3021 3022 3022 3022 3022 3023 3025 3026 3028 3029 3031 3032 3034 3036 3038 3039 3039 3045 3048 3047 3048 3051 3055 3058 3059 3060 3058 3058 3058 3055 3056 3059 3063 3065 3068 3069 3069
3018 3019 3021 3021 3020 3020 3020 3021 3022 3022 3022 3022 3023 3023 3024 3026 3028 3029 3029 3031 3033 3035 3036 3037 3040 3043 3047 3050 3049 3048 3050 3053 3055 3057 3056 3057 3058 3058 3056 3059 3062 3064 3065 3065 3065
3016 3017 3019 3020 3020 3021 3022 3022 3023 3024 3023 3023 3023 3023 3024 3025 3026 3028 3028 3030 3032 3034 3035 3037 3038 3039 3041 3040 3041 3044 3046 3050 3052 3053 3053 3054 3055 3056 3057 3060 3060 3060 3062 3061 3061
3013 3014 3016 3017 3019 3020 3021 3021 3022 3023 3023 3023 3022 3023 3026 3027 3027 3027 3027 3029 3030 3032 3034 3036 3036 3038 3039 3039 3040 3041 3042 3044 3044 3047 3049 3051 3053 3054 3055 3058 3057 3057 3057 3057 3057
3013 3013 3014 3015 3017 3018 3020 3021 3021 3022 3023 3023 3023 3023 3025 3027 3028 3027 3027 3028 3029 3031 3032 3033 3035 3035 3037 3038 3038 3038 3038 3039 3040 3041 3043 3046 3048 3050 3053 3052 3052 3053 3054 3054 3054
3010 3011 3012 3013 3014 3017 3018 3018 3019 3020 3020 3021 3022 3023 3023 3024 3025 3026 3027 3028 3028 3029 3030 3032 3033 3034 3035 3035 3035 3034 3029 3031 3033 3033 3037 3039 3041 3045 3046 3047 3048 3051 3052 3052 3051